Location: Lane
(33.5226°N, 79.8788°W)
Time: 21:59:29
(UTC+00:00)

Courier 1B Rocket - Pass Details

Date: 06 October 2022
Orbit: 920 x 1202 km, 28.2° (Epoch: 05 December)

Event Time Altitude Azimuth Distance (km) Brightness Sun altitude
Rises 00:29:08 0° 257° (WSW) 3,814 9.4 -19.7°
Reaches altitude 10° 00:31:59 10° 253° (WSW) 2,816 8.4 -20.3°
Maximum altitude 00:38:36 55° 178° (S) 1,163 5.3 -21.7°
Enters shadow 00:40:40 39° 125° (SE) 1,401 5.4 -22.1°
